You are here:

home

Questo sito é stato creato esclusivamente per valorizzare il lavoro svolto dall' intero
155° Gruppo E.T.S. del' Aeronautica Militare e non ha nessun fine commerciale ne di lucro. 
Pertanto, l' utilizzo delle foto é consentito solo per uso PRIVATO.

 

 
In alto

LIMS - Piacenza, San Damiano

[source: ADDS]
METAR
LIMS 311355Z 12004KT 3000 BR NSC 16/08 Q1024 RMK SKC VIS MIN 3000 WIND THR30 08001KT YLO =
TAF
TAF LIMS 311400Z 3115/3124 VRB03KT 2500 BR NSC BECMG 3119/3121 1500 BR =
In alto
WEB MASTER
Paolo "paolopaso" Pasotti
______________________________________
Last Update: 25/02/2011
_____________________________________________________________________________________________________________
© 2010 / 2011 - Tutti i diritti riservati
 
 
In alto